Year,Month,Day,Hour,Minute,Value (Times are PST for temperature in C)
2018,05,29,00,00,7.80
2018,05,29,00,01,7.80
2018,05,29,00,02,7.80
2018,05,29,00,03,7.80
2018,05,29,00,04,7.80
2018,05,29,00,05,7.80
2018,05,29,00,06,7.80
2018,05,29,00,07,7.70
2018,05,29,00,08,7.70
2018,05,29,00,09,7.70
2018,05,29,00,10,7.70
2018,05,29,00,11,7.70
2018,05,29,00,12,7.60
2018,05,29,00,13,7.60
2018,05,29,00,14,7.60
2018,05,29,00,15,7.60
2018,05,29,00,16,7.60
2018,05,29,00,17,7.60
2018,05,29,00,18,7.60
2018,05,29,00,19,7.60
2018,05,29,00,20,7.60
2018,05,29,00,21,7.60
2018,05,29,00,22,7.60
2018,05,29,00,23,7.60
2018,05,29,00,24,7.60
2018,05,29,00,25,7.60
2018,05,29,00,26,7.60
2018,05,29,00,27,7.50
2018,05,29,00,28,7.50
2018,05,29,00,29,7.50
2018,05,29,00,30,7.50
2018,05,29,00,31,7.50
2018,05,29,00,32,7.50
2018,05,29,00,33,7.40
2018,05,29,00,34,7.40
2018,05,29,00,35,7.40
2018,05,29,00,36,7.40
2018,05,29,00,37,7.30
2018,05,29,00,38,7.30
2018,05,29,00,39,7.30
2018,05,29,00,40,7.30
2018,05,29,00,41,7.20
2018,05,29,00,42,7.20
2018,05,29,00,43,7.20
2018,05,29,00,44,7.20
2018,05,29,00,45,7.20
2018,05,29,00,46,7.20
2018,05,29,00,47,7.20
2018,05,29,00,48,7.20
2018,05,29,00,49,7.20
2018,05,29,00,50,7.10
2018,05,29,00,51,7.10
2018,05,29,00,52,7.10
2018,05,29,00,53,7.10
2018,05,29,00,54,7.10
2018,05,29,00,55,7.10
2018,05,29,00,56,7.10
2018,05,29,00,57,7.10
2018,05,29,00,58,7.00
2018,05,29,00,59,7.00
2018,05,29,01,00,7.00
2018,05,29,01,01,6.90
2018,05,29,01,02,6.90
2018,05,29,01,03,6.90
2018,05,29,01,04,6.90
2018,05,29,01,05,7.00
2018,05,29,01,06,7.00
2018,05,29,01,07,7.00
2018,05,29,01,08,7.00
2018,05,29,01,09,7.00
2018,05,29,01,10,7.00
2018,05,29,01,11,7.00
2018,05,29,01,12,7.00
2018,05,29,01,13,7.00
2018,05,29,01,14,6.90
2018,05,29,01,15,6.90
2018,05,29,01,16,6.90
2018,05,29,01,17,6.90
2018,05,29,01,18,6.90
2018,05,29,01,19,7.00
2018,05,29,01,20,7.00
2018,05,29,01,21,7.00
2018,05,29,01,22,7.00
2018,05,29,01,23,7.00
2018,05,29,01,24,7.00
2018,05,29,01,25,7.00
2018,05,29,01,26,7.00
2018,05,29,01,27,7.00
2018,05,29,01,28,6.90
2018,05,29,01,29,6.90
2018,05,29,01,30,6.80
2018,05,29,01,31,6.80
2018,05,29,01,32,6.80
2018,05,29,01,33,6.80
2018,05,29,01,34,6.80
2018,05,29,01,35,6.80
2018,05,29,01,36,6.80
2018,05,29,01,37,6.70
2018,05,29,01,38,6.70
2018,05,29,01,39,6.70
2018,05,29,01,40,6.60
2018,05,29,01,41,6.60
2018,05,29,01,42,6.60
2018,05,29,01,43,6.60
2018,05,29,01,44,6.60
2018,05,29,01,45,6.50
2018,05,29,01,46,6.50
2018,05,29,01,47,6.50
2018,05,29,01,48,6.50
2018,05,29,01,49,6.40
2018,05,29,01,50,6.40
2018,05,29,01,51,6.40
2018,05,29,01,52,6.40
2018,05,29,01,53,6.40
2018,05,29,01,54,6.40
2018,05,29,01,55,6.40
2018,05,29,01,56,6.40
2018,05,29,01,57,6.40
2018,05,29,01,58,6.40
2018,05,29,01,59,6.40
2018,05,29,02,00,6.40
2018,05,29,02,01,6.40
2018,05,29,02,02,6.40
2018,05,29,02,03,6.40
2018,05,29,02,04,6.30
2018,05,29,02,05,6.30
2018,05,29,02,06,6.30
2018,05,29,02,07,6.30
2018,05,29,02,08,6.30
2018,05,29,02,09,6.20
2018,05,29,02,10,6.20
2018,05,29,02,11,6.20
2018,05,29,02,12,6.20
2018,05,29,02,13,6.10
2018,05,29,02,14,6.10
2018,05,29,02,15,6.10
2018,05,29,02,16,6.10
2018,05,29,02,17,6.20
2018,05,29,02,18,6.20
2018,05,29,02,19,6.20
2018,05,29,02,20,6.20
2018,05,29,02,21,6.20
2018,05,29,02,22,6.20
2018,05,29,02,23,6.20
2018,05,29,02,24,6.10
2018,05,29,02,25,6.10
2018,05,29,02,26,6.10
2018,05,29,02,27,6.10
2018,05,29,02,28,6.10
2018,05,29,02,29,6.10
2018,05,29,02,30,6.10
2018,05,29,02,31,6.10
2018,05,29,02,32,6.10
2018,05,29,02,33,6.10
2018,05,29,02,34,6.10
2018,05,29,02,35,6.10
2018,05,29,02,36,6.10
2018,05,29,02,37,6.10
2018,05,29,02,38,6.10
2018,05,29,02,39,6.10
2018,05,29,02,40,6.10
2018,05,29,02,41,6.10
2018,05,29,02,42,6.00
2018,05,29,02,43,6.00
2018,05,29,02,44,6.00
2018,05,29,02,45,6.00
2018,05,29,02,46,6.00
2018,05,29,02,47,6.00
2018,05,29,02,48,6.00
2018,05,29,02,49,6.00
2018,05,29,02,50,6.00
2018,05,29,02,51,6.10
2018,05,29,02,52,6.10
2018,05,29,02,53,6.20
2018,05,29,02,54,6.20
2018,05,29,02,55,6.30
2018,05,29,02,56,6.40
2018,05,29,02,57,6.50
2018,05,29,02,58,6.60
2018,05,29,02,59,6.60
2018,05,29,03,00,6.70
2018,05,29,03,01,6.70
2018,05,29,03,02,6.70
2018,05,29,03,03,6.70
2018,05,29,03,04,6.70
2018,05,29,03,05,6.60
2018,05,29,03,06,6.60
2018,05,29,03,07,6.60
2018,05,29,03,08,6.60
2018,05,29,03,09,6.60
2018,05,29,03,10,6.70
2018,05,29,03,11,6.60
2018,05,29,03,12,6.60
2018,05,29,03,13,6.60
2018,05,29,03,14,6.60
2018,05,29,03,15,6.60
2018,05,29,03,16,6.50
2018,05,29,03,17,6.50
2018,05,29,03,18,6.40
2018,05,29,03,19,6.40
2018,05,29,03,20,6.40
2018,05,29,03,21,6.30
2018,05,29,03,22,6.30
2018,05,29,03,23,6.30
2018,05,29,03,24,6.30
2018,05,29,03,25,6.20
2018,05,29,03,26,6.20
2018,05,29,03,27,6.20
2018,05,29,03,28,6.20
2018,05,29,03,29,6.20
2018,05,29,03,30,6.20
2018,05,29,03,31,6.20
2018,05,29,03,32,6.20
2018,05,29,03,33,6.20
2018,05,29,03,34,6.20
2018,05,29,03,35,6.20
2018,05,29,03,36,6.20
2018,05,29,03,37,6.10
2018,05,29,03,38,6.10
2018,05,29,03,39,6.10
2018,05,29,03,40,6.10
2018,05,29,03,41,6.10
2018,05,29,03,42,6.10
2018,05,29,03,43,6.10
2018,05,29,03,44,6.00
2018,05,29,03,45,6.00
2018,05,29,03,46,6.00
2018,05,29,03,47,6.00
2018,05,29,03,48,6.00
2018,05,29,03,49,6.00
2018,05,29,03,50,6.00
2018,05,29,03,51,6.00
2018,05,29,03,52,6.00
2018,05,29,03,53,6.00
2018,05,29,03,54,6.00
2018,05,29,03,55,6.00
2018,05,29,03,56,5.90
2018,05,29,03,57,5.90
2018,05,29,03,58,5.90
2018,05,29,03,59,5.90
2018,05,29,04,00,6.00
2018,05,29,04,01,6.00
2018,05,29,04,02,6.00
2018,05,29,04,03,6.00
2018,05,29,04,04,6.00
2018,05,29,04,05,6.00
2018,05,29,04,06,6.00
2018,05,29,04,07,6.00
2018,05,29,04,08,5.90
2018,05,29,04,09,5.90
2018,05,29,04,10,5.90
2018,05,29,04,11,6.00
2018,05,29,04,12,6.00
2018,05,29,04,13,6.00
2018,05,29,04,14,6.00
2018,05,29,04,15,6.00
2018,05,29,04,16,6.00
2018,05,29,04,17,6.00
2018,05,29,04,18,6.00
2018,05,29,04,19,6.00
2018,05,29,04,20,5.90
2018,05,29,04,21,5.90
2018,05,29,04,22,5.90
2018,05,29,04,23,5.90
2018,05,29,04,24,5.90
2018,05,29,04,25,5.90
2018,05,29,04,26,5.80
2018,05,29,04,27,5.80
2018,05,29,04,28,5.80
2018,05,29,04,29,5.70
2018,05,29,04,30,5.70
2018,05,29,04,31,5.70
2018,05,29,04,32,5.70
2018,05,29,04,33,5.70
2018,05,29,04,34,5.60
2018,05,29,04,35,5.60
2018,05,29,04,36,5.60
2018,05,29,04,37,5.60
2018,05,29,04,38,5.60
2018,05,29,04,39,5.60
2018,05,29,04,40,5.60
2018,05,29,04,41,5.70
2018,05,29,04,42,5.70
2018,05,29,04,43,5.70
2018,05,29,04,44,5.70
2018,05,29,04,45,5.70
2018,05,29,04,46,5.70
2018,05,29,04,47,5.70
2018,05,29,04,48,5.70
2018,05,29,04,49,5.70
2018,05,29,04,50,5.70
2018,05,29,04,51,5.70
2018,05,29,04,52,5.70
2018,05,29,04,53,5.70
2018,05,29,04,54,5.70
2018,05,29,04,55,5.70
2018,05,29,04,56,5.70
2018,05,29,04,57,5.60
2018,05,29,04,58,5.60
2018,05,29,04,59,5.60
2018,05,29,05,00,5.60
2018,05,29,05,01,5.60
2018,05,29,05,02,5.50
2018,05,29,05,03,5.50
2018,05,29,05,04,5.50
2018,05,29,05,05,5.50
2018,05,29,05,06,5.60
2018,05,29,05,07,5.50
2018,05,29,05,08,5.50
2018,05,29,05,09,5.50
2018,05,29,05,10,5.50
2018,05,29,05,11,5.50
2018,05,29,05,12,5.50
2018,05,29,05,13,5.50
2018,05,29,05,14,5.50
2018,05,29,05,15,5.50
2018,05,29,05,16,5.40
2018,05,29,05,17,5.40
2018,05,29,05,18,5.40
2018,05,29,05,19,5.40
2018,05,29,05,20,5.40
2018,05,29,05,21,5.40
2018,05,29,05,22,5.40
2018,05,29,05,23,5.40
2018,05,29,05,24,5.40
2018,05,29,05,25,5.40
2018,05,29,05,26,5.40
2018,05,29,05,27,5.40
2018,05,29,05,28,5.40
2018,05,29,05,29,5.40
2018,05,29,05,30,5.40
2018,05,29,05,31,5.40
2018,05,29,05,32,5.40
2018,05,29,05,33,5.40
2018,05,29,05,34,5.40
2018,05,29,05,35,5.40
2018,05,29,05,36,5.40
2018,05,29,05,37,5.40
2018,05,29,05,38,5.40
2018,05,29,05,39,5.40
2018,05,29,05,40,5.40
2018,05,29,05,41,5.40
2018,05,29,05,42,5.40
2018,05,29,05,43,5.40
2018,05,29,05,44,5.30
2018,05,29,05,45,5.30
2018,05,29,05,46,5.30
2018,05,29,05,47,5.30
2018,05,29,05,48,5.30
2018,05,29,05,49,5.30
2018,05,29,05,50,5.30
2018,05,29,05,51,5.30
2018,05,29,05,52,5.30
2018,05,29,05,53,5.30
2018,05,29,05,54,5.30
2018,05,29,05,55,5.30
2018,05,29,05,56,5.40
2018,05,29,05,57,5.40
2018,05,29,05,58,5.40
2018,05,29,05,59,5.40
2018,05,29,06,00,5.40
2018,05,29,06,01,5.40
2018,05,29,06,02,5.40
2018,05,29,06,03,5.40
2018,05,29,06,04,5.40
2018,05,29,06,05,5.40
2018,05,29,06,06,5.40
2018,05,29,06,07,5.50
2018,05,29,06,08,5.50
2018,05,29,06,09,5.50
2018,05,29,06,10,5.60
2018,05,29,06,11,5.60
2018,05,29,06,12,5.60
2018,05,29,06,13,5.70
2018,05,29,06,14,5.70
2018,05,29,06,15,5.70
2018,05,29,06,16,5.70
2018,05,29,06,17,5.70
2018,05,29,06,18,5.70
2018,05,29,06,19,5.70
2018,05,29,06,20,5.70
2018,05,29,06,21,5.70
2018,05,29,06,22,5.80
2018,05,29,06,23,5.80
2018,05,29,06,24,5.80
2018,05,29,06,25,5.80
2018,05,29,06,26,5.80
2018,05,29,06,27,5.80
2018,05,29,06,28,5.80
2018,05,29,06,29,5.80
2018,05,29,06,30,5.90
2018,05,29,06,31,5.90
2018,05,29,06,32,5.90
2018,05,29,06,33,6.00
2018,05,29,06,34,6.00
2018,05,29,06,35,6.10
2018,05,29,06,36,6.10
2018,05,29,06,37,6.10
2018,05,29,06,38,6.10
2018,05,29,06,39,6.10
2018,05,29,06,40,6.10
2018,05,29,06,41,6.10
2018,05,29,06,42,6.10
2018,05,29,06,43,6.10
2018,05,29,06,44,6.20
2018,05,29,06,45,6.20
2018,05,29,06,46,6.20
2018,05,29,06,47,6.20
2018,05,29,06,48,6.20
2018,05,29,06,49,6.20
2018,05,29,06,50,6.30
2018,05,29,06,51,6.30
2018,05,29,06,52,6.30
2018,05,29,06,53,6.40
2018,05,29,06,54,6.40
2018,05,29,06,55,6.50
2018,05,29,06,56,6.50
2018,05,29,06,57,6.60
2018,05,29,06,58,6.60
2018,05,29,06,59,6.60
2018,05,29,07,00,6.60
2018,05,29,07,01,6.60
2018,05,29,07,02,6.70
2018,05,29,07,03,6.70
2018,05,29,07,04,6.80
2018,05,29,07,05,6.90
2018,05,29,07,06,7.00
2018,05,29,07,07,7.00
2018,05,29,07,08,7.10
2018,05,29,07,09,7.10
2018,05,29,07,10,7.20
2018,05,29,07,11,7.20
2018,05,29,07,12,7.20
2018,05,29,07,13,7.30
2018,05,29,07,14,7.30
2018,05,29,07,15,7.40
2018,05,29,07,16,7.50
2018,05,29,07,17,7.50
2018,05,29,07,18,7.60
2018,05,29,07,19,7.70
2018,05,29,07,20,7.80
2018,05,29,07,21,7.80
2018,05,29,07,22,7.90
2018,05,29,07,23,8.00
2018,05,29,07,24,8.10
2018,05,29,07,25,8.20
2018,05,29,07,26,8.30
2018,05,29,07,27,8.30
2018,05,29,07,28,8.40
2018,05,29,07,29,8.50
2018,05,29,07,30,8.50
2018,05,29,07,31,8.60
2018,05,29,07,32,8.70
2018,05,29,07,33,8.70
2018,05,29,07,34,8.80
2018,05,29,07,35,8.80
2018,05,29,07,36,8.90
2018,05,29,07,37,9.00
2018,05,29,07,38,9.00
2018,05,29,07,39,9.10
2018,05,29,07,40,9.10
2018,05,29,07,41,9.20
2018,05,29,07,42,9.20
2018,05,29,07,43,9.30
2018,05,29,07,44,9.30
2018,05,29,07,45,9.40
2018,05,29,07,46,9.40
2018,05,29,07,47,9.50
2018,05,29,07,48,9.50
2018,05,29,07,49,9.60
2018,05,29,07,50,9.60
2018,05,29,07,51,9.70
2018,05,29,07,52,9.70
2018,05,29,07,53,9.80
2018,05,29,07,54,9.80
2018,05,29,07,55,9.90
2018,05,29,07,56,10.00
2018,05,29,07,57,10.00
2018,05,29,07,58,10.10
2018,05,29,07,59,10.20
2018,05,29,08,00,10.30
2018,05,29,08,01,10.30
2018,05,29,08,02,10.40
2018,05,29,08,03,10.50
2018,05,29,08,04,10.60
2018,05,29,08,05,10.70
2018,05,29,08,06,10.80
2018,05,29,08,07,10.90
2018,05,29,08,08,10.90
2018,05,29,08,09,11.00
2018,05,29,08,10,11.10
2018,05,29,08,11,11.10
2018,05,29,08,12,11.20
2018,05,29,08,13,11.30
2018,05,29,08,14,11.30
2018,05,29,08,15,11.30
2018,05,29,08,16,11.30
2018,05,29,08,17,11.40
2018,05,29,08,18,11.40
2018,05,29,08,19,11.40
2018,05,29,08,20,11.50
2018,05,29,08,21,11.50
2018,05,29,08,22,11.60
2018,05,29,08,23,11.60
2018,05,29,08,24,11.60
2018,05,29,08,25,11.70
2018,05,29,08,26,11.70
2018,05,29,08,27,11.70
2018,05,29,08,28,11.70
2018,05,29,08,29,11.70
2018,05,29,08,30,11.80
2018,05,29,08,31,11.80
2018,05,29,08,32,11.80
2018,05,29,08,33,11.80
2018,05,29,08,34,11.80
2018,05,29,08,35,11.90
2018,05,29,08,36,11.90
2018,05,29,08,37,11.90
2018,05,29,08,38,11.90
2018,05,29,08,39,11.90
2018,05,29,08,40,11.90
2018,05,29,08,41,11.90
2018,05,29,08,42,11.90
2018,05,29,08,43,11.90
2018,05,29,08,44,11.90
2018,05,29,08,45,11.90
2018,05,29,08,46,11.90
2018,05,29,08,47,11.90
2018,05,29,08,48,11.90
2018,05,29,08,49,11.90
2018,05,29,08,50,11.90
2018,05,29,08,51,11.90
2018,05,29,08,52,12.00
2018,05,29,08,53,12.00
2018,05,29,08,54,12.00
2018,05,29,08,55,12.10
2018,05,29,08,56,12.00
2018,05,29,08,57,12.00
2018,05,29,08,58,11.90
2018,05,29,08,59,11.90
2018,05,29,09,00,11.90
2018,05,29,09,01,11.90
2018,05,29,09,02,12.00
2018,05,29,09,03,12.00
2018,05,29,09,04,12.10
2018,05,29,09,05,12.20
2018,05,29,09,06,12.20
2018,05,29,09,07,12.30
2018,05,29,09,08,12.20
2018,05,29,09,09,12.20
2018,05,29,09,10,12.30
2018,05,29,09,11,12.30
2018,05,29,09,12,12.30
2018,05,29,09,13,12.30
2018,05,29,09,14,12.30
2018,05,29,09,15,12.30
2018,05,29,09,16,12.20
2018,05,29,09,17,12.20
2018,05,29,09,18,12.20
2018,05,29,09,19,12.20
2018,05,29,09,20,12.30
2018,05,29,09,21,12.30
2018,05,29,09,22,12.40
2018,05,29,09,23,12.40
2018,05,29,09,24,12.40
2018,05,29,09,25,12.40
2018,05,29,09,26,12.40
2018,05,29,09,27,12.40
2018,05,29,09,28,12.50
2018,05,29,09,29,12.50
2018,05,29,09,30,12.50
2018,05,29,09,31,12.60
2018,05,29,09,32,12.70
2018,05,29,09,33,12.70
2018,05,29,09,34,12.80
2018,05,29,09,35,12.80
2018,05,29,09,36,12.90
2018,05,29,09,37,12.90
2018,05,29,09,38,12.90
2018,05,29,09,39,12.90
2018,05,29,09,40,12.90
2018,05,29,09,41,13.00
2018,05,29,09,42,13.00
2018,05,29,09,43,12.90
2018,05,29,09,44,12.90
2018,05,29,09,45,12.80
2018,05,29,09,46,12.80
2018,05,29,09,47,12.80
2018,05,29,09,48,12.90
2018,05,29,09,49,12.90
2018,05,29,09,50,12.90
2018,05,29,09,51,12.90
2018,05,29,09,52,12.80
2018,05,29,09,53,12.80
2018,05,29,09,54,12.80
2018,05,29,09,55,12.80
2018,05,29,09,56,12.80
2018,05,29,09,57,12.80
2018,05,29,09,58,12.80
2018,05,29,09,59,12.90
2018,05,29,10,00,12.90
2018,05,29,10,01,12.90
2018,05,29,10,02,12.80
2018,05,29,10,03,12.80
2018,05,29,10,04,12.80
2018,05,29,10,05,12.70
2018,05,29,10,06,12.80
2018,05,29,10,07,12.70
2018,05,29,10,08,12.70
2018,05,29,10,09,12.60
2018,05,29,10,10,12.70
2018,05,29,10,11,12.70
2018,05,29,10,12,12.70
2018,05,29,10,13,12.70
2018,05,29,10,14,12.70
2018,05,29,10,15,12.70
2018,05,29,10,16,12.70
2018,05,29,10,17,12.70
2018,05,29,10,18,12.80
2018,05,29,10,19,12.80
2018,05,29,10,20,12.90
2018,05,29,10,21,12.90
2018,05,29,10,22,13.00
2018,05,29,10,23,13.10
2018,05,29,10,24,13.20
2018,05,29,10,25,13.20
2018,05,29,10,26,13.10
2018,05,29,10,27,13.10
2018,05,29,10,28,13.10
2018,05,29,10,29,13.10
2018,05,29,10,30,13.00
2018,05,29,10,31,12.90
2018,05,29,10,32,12.90
2018,05,29,10,33,12.90
2018,05,29,10,34,12.90
2018,05,29,10,35,12.90
2018,05,29,10,36,12.90
2018,05,29,10,37,12.90
2018,05,29,10,38,12.90
2018,05,29,10,39,12.90
2018,05,29,10,40,13.00
2018,05,29,10,41,13.10
2018,05,29,10,42,13.20
2018,05,29,10,43,13.20
2018,05,29,10,44,13.30
2018,05,29,10,45,13.30
2018,05,29,10,46,13.40
2018,05,29,10,47,13.40
2018,05,29,10,48,13.40
2018,05,29,10,49,13.40
2018,05,29,10,50,13.50
2018,05,29,10,51,13.50
2018,05,29,10,52,13.60
2018,05,29,10,53,13.60
2018,05,29,10,54,13.60
2018,05,29,10,55,13.60
2018,05,29,10,56,13.60
2018,05,29,10,57,13.60
2018,05,29,10,58,13.70
2018,05,29,10,59,13.70
2018,05,29,11,00,13.70
2018,05,29,11,01,13.70
2018,05,29,11,02,13.70
2018,05,29,11,03,13.70
2018,05,29,11,04,13.60
2018,05,29,11,05,13.50
2018,05,29,11,06,13.50
2018,05,29,11,07,13.40
2018,05,29,11,08,13.40
2018,05,29,11,09,13.40
2018,05,29,11,10,13.50
2018,05,29,11,11,13.50
2018,05,29,11,12,13.60
2018,05,29,11,13,13.60
2018,05,29,11,14,13.50
2018,05,29,11,15,13.50
2018,05,29,11,16,13.60
2018,05,29,11,17,13.60
2018,05,29,11,18,13.70
2018,05,29,11,19,13.70
2018,05,29,11,20,13.70
2018,05,29,11,21,13.80
2018,05,29,11,22,13.80
2018,05,29,11,23,13.80
2018,05,29,11,24,13.80
2018,05,29,11,25,13.90
2018,05,29,11,26,13.90
2018,05,29,11,27,13.90
2018,05,29,11,28,13.90
2018,05,29,11,29,13.90
2018,05,29,11,30,13.90
2018,05,29,11,31,13.90
2018,05,29,11,32,13.80
2018,05,29,11,33,13.70
2018,05,29,11,34,13.70
2018,05,29,11,35,13.70
2018,05,29,11,36,13.70
2018,05,29,11,37,13.60
2018,05,29,11,38,13.60
2018,05,29,11,39,13.60
2018,05,29,11,40,13.60
2018,05,29,11,41,13.70
2018,05,29,11,42,13.80
2018,05,29,11,43,13.80
2018,05,29,11,44,13.90
2018,05,29,11,45,13.90
2018,05,29,11,46,14.00
2018,05,29,11,47,14.00
2018,05,29,11,48,14.10
2018,05,29,11,49,14.00
2018,05,29,11,50,14.00
2018,05,29,11,51,13.90
2018,05,29,11,52,13.90
2018,05,29,11,53,13.80
2018,05,29,11,54,13.80
2018,05,29,11,55,13.80
2018,05,29,11,56,13.80
2018,05,29,11,57,13.80
2018,05,29,11,58,13.90
2018,05,29,11,59,14.00
2018,05,29,12,00,14.10
2018,05,29,12,01,14.20
2018,05,29,12,02,14.30
2018,05,29,12,03,14.40
2018,05,29,12,04,14.40
2018,05,29,12,05,14.40
2018,05,29,12,06,14.50
2018,05,29,12,07,14.60
2018,05,29,12,08,14.60
2018,05,29,12,09,14.70
2018,05,29,12,10,14.70
2018,05,29,12,11,14.80
2018,05,29,12,12,14.70
2018,05,29,12,13,14.60
2018,05,29,12,14,14.40
2018,05,29,12,15,14.30
2018,05,29,12,16,14.20
2018,05,29,12,17,14.20
2018,05,29,12,18,14.20
2018,05,29,12,19,14.30
2018,05,29,12,20,14.40
2018,05,29,12,21,14.40
2018,05,29,12,22,14.40
2018,05,29,12,23,14.50
2018,05,29,12,24,14.40
2018,05,29,12,25,14.40
2018,05,29,12,26,14.30
2018,05,29,12,27,14.30
2018,05,29,12,28,14.40
2018,05,29,12,29,14.40
2018,05,29,12,30,14.50
2018,05,29,12,31,14.60
2018,05,29,12,32,14.60
2018,05,29,12,33,14.70
2018,05,29,12,34,14.70
2018,05,29,12,35,14.70
2018,05,29,12,36,14.70
2018,05,29,12,37,14.70
2018,05,29,12,38,14.70
2018,05,29,12,39,14.70
2018,05,29,12,40,14.60
2018,05,29,12,41,14.60
2018,05,29,12,42,14.50
2018,05,29,12,43,14.50
2018,05,29,12,44,14.50
2018,05,29,12,45,14.60
2018,05,29,12,46,14.60
2018,05,29,12,47,14.60
2018,05,29,12,48,14.70
2018,05,29,12,49,14.80
2018,05,29,12,50,14.90
2018,05,29,12,51,15.00
2018,05,29,12,52,15.10
2018,05,29,12,53,15.10
2018,05,29,12,54,15.10
2018,05,29,12,55,15.00
2018,05,29,12,56,15.00
2018,05,29,12,57,14.90
2018,05,29,12,58,14.90
2018,05,29,12,59,14.90
2018,05,29,13,00,14.80
2018,05,29,13,01,14.80
2018,05,29,13,02,14.70
2018,05,29,13,03,14.70
2018,05,29,13,04,14.70
2018,05,29,13,05,14.70
2018,05,29,13,06,14.70
2018,05,29,13,07,14.70
2018,05,29,13,08,14.70
2018,05,29,13,09,14.70
2018,05,29,13,10,14.70
2018,05,29,13,11,14.70
2018,05,29,13,12,14.70
2018,05,29,13,13,14.70
2018,05,29,13,14,14.70
2018,05,29,13,15,14.70
2018,05,29,13,16,14.70
2018,05,29,13,17,14.60
2018,05,29,13,18,14.70
2018,05,29,13,19,14.80
2018,05,29,13,20,14.80
2018,05,29,13,21,14.90
2018,05,29,13,22,14.90
2018,05,29,13,23,14.90
2018,05,29,13,24,15.00
2018,05,29,13,25,15.10
2018,05,29,13,26,15.20
2018,05,29,13,27,15.30
2018,05,29,13,28,15.40
2018,05,29,13,29,15.40
2018,05,29,13,30,15.40
2018,05,29,13,31,15.30
2018,05,29,13,32,15.40
2018,05,29,13,33,15.40
2018,05,29,13,34,15.40
2018,05,29,13,35,15.50
2018,05,29,13,36,15.50
2018,05,29,13,37,15.50
2018,05,29,13,38,15.40
2018,05,29,13,39,15.40
2018,05,29,13,40,15.40
2018,05,29,13,41,15.40
2018,05,29,13,42,15.50
2018,05,29,13,43,15.50
2018,05,29,13,44,15.60
2018,05,29,13,45,15.60
2018,05,29,13,46,15.50
2018,05,29,13,47,15.50
2018,05,29,13,48,15.50
2018,05,29,13,49,15.50
2018,05,29,13,50,15.50
2018,05,29,13,51,15.50
2018,05,29,13,52,15.50
2018,05,29,13,53,15.60
2018,05,29,13,54,15.60
2018,05,29,13,55,15.70
2018,05,29,13,56,15.70
2018,05,29,13,57,15.80
2018,05,29,13,58,15.80
2018,05,29,13,59,15.70
2018,05,29,14,00,15.70
2018,05,29,14,01,15.60
2018,05,29,14,02,15.60
2018,05,29,14,03,15.60
2018,05,29,14,04,15.60
2018,05,29,14,05,15.70
2018,05,29,14,06,15.70
2018,05,29,14,07,15.60
2018,05,29,14,08,15.60
2018,05,29,14,09,15.60
2018,05,29,14,10,15.50
2018,05,29,14,11,15.50
2018,05,29,14,12,15.50
2018,05,29,14,13,15.50
2018,05,29,14,14,15.60
2018,05,29,14,15,15.60
2018,05,29,14,16,15.60
2018,05,29,14,17,15.60
2018,05,29,14,18,15.60
2018,05,29,14,19,15.70
2018,05,29,14,20,15.70
2018,05,29,14,21,15.70
2018,05,29,14,22,15.80
2018,05,29,14,23,15.80
2018,05,29,14,24,15.80
2018,05,29,14,25,15.80
2018,05,29,14,26,15.80
2018,05,29,14,27,15.80
2018,05,29,14,28,15.80
2018,05,29,14,29,15.80
2018,05,29,14,30,15.90
2018,05,29,14,31,15.90
2018,05,29,14,32,15.90
2018,05,29,14,33,16.00
2018,05,29,14,34,16.00
2018,05,29,14,35,16.10
2018,05,29,14,36,16.20
2018,05,29,14,37,16.20
2018,05,29,14,38,16.20
2018,05,29,14,39,16.10
2018,05,29,14,40,16.00
2018,05,29,14,41,15.90
2018,05,29,14,42,16.00
2018,05,29,14,43,16.00
2018,05,29,14,44,15.90
2018,05,29,14,45,15.90
2018,05,29,14,46,15.90
2018,05,29,14,47,15.90
2018,05,29,14,48,15.90
2018,05,29,14,49,15.90
2018,05,29,14,50,15.90
2018,05,29,14,51,15.90
2018,05,29,14,52,16.00
2018,05,29,14,53,16.00
2018,05,29,14,54,16.10
2018,05,29,14,55,16.20
2018,05,29,14,56,16.30
2018,05,29,14,57,16.30
2018,05,29,14,58,16.20
2018,05,29,14,59,16.20
2018,05,29,15,00,16.20
2018,05,29,15,01,16.20
2018,05,29,15,02,16.20
2018,05,29,15,03,16.40
2018,05,29,15,04,16.40
2018,05,29,15,05,16.40
2018,05,29,15,06,16.40
2018,05,29,15,07,16.50
2018,05,29,15,08,16.50
2018,05,29,15,09,16.50
2018,05,29,15,10,16.40
2018,05,29,15,11,16.30
2018,05,29,15,12,16.20
2018,05,29,15,13,16.20
2018,05,29,15,14,16.20
2018,05,29,15,15,16.20
2018,05,29,15,16,16.10
2018,05,29,15,17,16.00
2018,05,29,15,18,15.90
2018,05,29,15,19,15.90
2018,05,29,15,20,15.90
2018,05,29,15,21,16.00
2018,05,29,15,22,16.00
2018,05,29,15,23,16.10
2018,05,29,15,24,16.20
2018,05,29,15,25,16.20
2018,05,29,15,26,16.20
2018,05,29,15,27,16.20
2018,05,29,15,28,16.20
2018,05,29,15,29,16.10
2018,05,29,15,30,16.10
2018,05,29,15,31,16.10
2018,05,29,15,32,16.10
2018,05,29,15,33,16.10
2018,05,29,15,34,16.20
2018,05,29,15,35,16.20
2018,05,29,15,36,16.10
2018,05,29,15,37,16.10
2018,05,29,15,38,16.10
2018,05,29,15,39,16.10
2018,05,29,15,40,16.00
2018,05,29,15,41,16.00
2018,05,29,15,42,16.10
2018,05,29,15,43,16.20
2018,05,29,15,44,16.30
2018,05,29,15,45,16.30
2018,05,29,15,46,16.30
2018,05,29,15,47,16.40
2018,05,29,15,48,16.40
2018,05,29,15,49,16.30
2018,05,29,15,50,16.30
2018,05,29,15,51,16.30
2018,05,29,15,52,16.30
2018,05,29,15,53,16.20
2018,05,29,15,54,16.20
2018,05,29,15,55,16.20
2018,05,29,15,56,16.20
2018,05,29,15,57,16.20
2018,05,29,15,58,16.20
2018,05,29,15,59,16.10
2018,05,29,16,00,16.00
2018,05,29,16,01,16.00
2018,05,29,16,02,16.00
2018,05,29,16,03,15.90
2018,05,29,16,04,16.00
2018,05,29,16,05,16.10
2018,05,29,16,06,16.20
2018,05,29,16,07,16.20
2018,05,29,16,08,16.20
2018,05,29,16,09,16.10
2018,05,29,16,10,16.10
2018,05,29,16,11,16.10
2018,05,29,16,12,16.10
2018,05,29,16,13,16.10
2018,05,29,16,14,16.10
2018,05,29,16,15,16.10
2018,05,29,16,16,16.10
2018,05,29,16,17,16.10
2018,05,29,16,18,16.10
2018,05,29,16,19,16.10
2018,05,29,16,20,16.10
2018,05,29,16,21,16.10
2018,05,29,16,22,16.00
2018,05,29,16,23,15.90
2018,05,29,16,24,15.80
2018,05,29,16,25,15.80
2018,05,29,16,26,15.70
2018,05,29,16,27,15.70
2018,05,29,16,28,15.70
2018,05,29,16,29,15.70
2018,05,29,16,30,15.70
2018,05,29,16,31,15.70
2018,05,29,16,32,15.60
2018,05,29,16,33,15.60
2018,05,29,16,34,15.70
2018,05,29,16,35,15.70
2018,05,29,16,36,15.80
2018,05,29,16,37,15.90
2018,05,29,16,38,15.90
2018,05,29,16,39,16.00
2018,05,29,16,40,16.10
2018,05,29,16,41,16.10
2018,05,29,16,42,16.00
2018,05,29,16,43,16.00
2018,05,29,16,44,16.00
2018,05,29,16,45,15.90
2018,05,29,16,46,15.90
2018,05,29,16,47,15.90
2018,05,29,16,48,15.90
2018,05,29,16,49,15.90
2018,05,29,16,50,16.00
2018,05,29,16,51,16.00
2018,05,29,16,52,16.00
2018,05,29,16,53,16.00
2018,05,29,16,54,16.00
2018,05,29,16,55,16.10
2018,05,29,16,56,16.20
2018,05,29,16,57,16.20
2018,05,29,16,58,16.20
2018,05,29,16,59,16.20
2018,05,29,17,00,16.30
2018,05,29,17,01,16.30
2018,05,29,17,02,16.30
2018,05,29,17,03,16.30
2018,05,29,17,04,16.30
2018,05,29,17,05,16.20
2018,05,29,17,06,16.10
2018,05,29,17,07,16.10
2018,05,29,17,08,16.10
2018,05,29,17,09,16.00
2018,05,29,17,10,15.90
2018,05,29,17,11,15.90
2018,05,29,17,12,15.90
2018,05,29,17,13,15.80
2018,05,29,17,14,15.80
2018,05,29,17,15,15.80
2018,05,29,17,16,15.80
2018,05,29,17,17,15.90
2018,05,29,17,18,16.00
2018,05,29,17,19,16.10
2018,05,29,17,20,16.10
2018,05,29,17,21,16.10
2018,05,29,17,22,16.10
2018,05,29,17,23,16.20
2018,05,29,17,24,16.20
2018,05,29,17,25,16.30
2018,05,29,17,26,16.30
2018,05,29,17,27,16.30
2018,05,29,17,28,16.40
2018,05,29,17,29,16.30
2018,05,29,17,30,16.30
2018,05,29,17,31,16.30
2018,05,29,17,32,16.30
2018,05,29,17,33,16.30
2018,05,29,17,34,16.30
2018,05,29,17,35,16.30
2018,05,29,17,36,16.30
2018,05,29,17,37,16.20
2018,05,29,17,38,16.20
2018,05,29,17,39,16.00
2018,05,29,17,40,15.80